Weather History for KHKY - January, 2011

Change the Weather History Date:

Tuesday, January 11, 2011

  Actual Average Record
Temperature  
Mean Temperature 28 °F -  
Max Temperature 30 °F 46 °F - (-1)
Min Temperature 26 °F 26 °F - (-1)
Degree Days  
Heating Degree Days 37    
Moisture  
Dew Point 26 °F    
Average Humidity 92    
Maximum Humidity 100    
Minimum Humidity 67    
Precipitation  
Precipitation 0.01 in - - ()
Sea Level Pressure  
Sea Level Pressure 30.12 in    
Wind  
Wind Speed 4 mph (NNE)    
Max Wind Speed 9 mph    
Max Gust Speed -    
Visibility 4 miles    
Events Snow    
Averages and records for this station are not official NWS values.
T = Trace of Precipitation, MM = Missing Value Source: NWS Daily Summary

Daily Weather History Graph

Daily Weather History Graph

Search for Another Location

Airport or City:

Trip Planner

Search our weather history database for the weather conditions in past years. The results will help you decide how hot, cold, wet, or windy it might be!

Date:

Astronomy

Jan. 11, 2011 Rise Set
Actual Time 7:35 AM EST 5:31 PM EST
Civil Twilight 7:07 AM EST 5:59 PM EST
Nautical Twilight 6:36 AM EST 6:30 PM EST
Astronomical Twilight 6:05 AM EST 7:01 PM EST
Moon 11:11 AM EST (1/11) No Moon Set
Length of Visible Light 10h 51m
Length of Day
9h 55m
Waxing Crescent, 43% of the Moon is Illuminated
Jan 11
Waxing Crescent
Jan 12
First Quarter
Jan 19
Full
Jan 26
Last Quarter
Feb 2
New

Hourly Weather History & Observations

Time (EST) Temp. Windchill Dew Point Humidity Pressure Visibility Wind Dir Wind Speed Gust Speed Precip Events Conditions
12:27 AM 26.6 °F 20.0 °F 24.8 °F 93% 30.19 in 4.0 mi NNE 5.8 mph - 0.00 in   Overcast
12:43 AM 26.6 °F 20.0 °F 24.8 °F 93% 30.19 in 4.0 mi NE 5.8 mph - 0.00 in   Overcast
12:53 AM 26.1 °F 18.4 °F 23.0 °F 88% 30.20 in 5.0 mi NNE 6.9 mph - 0.00 in   Overcast
1:11 AM 26.6 °F 20.0 °F 24.8 °F 93% 30.20 in 4.0 mi NNE 5.8 mph - N/A   Overcast
1:23 AM 26.6 °F 20.0 °F 24.8 °F 93% 30.20 in 2.5 mi North 5.8 mph - 0.00 in Snow Light Snow
1:36 AM 26.6 °F 19.1 °F 24.8 °F 93% 30.20 in 3.0 mi NNE 6.9 mph - 0.00 in   Overcast
1:53 AM 26.1 °F 20.5 °F 24.1 °F 92% 30.21 in 3.0 mi North 4.6 mph - 0.00 in   Overcast
2:02 AM 26.6 °F 17.5 °F 24.8 °F 93% 30.20 in 3.0 mi North 9.2 mph - N/A   Overcast
2:53 AM 27.0 °F 21.6 °F 25.0 °F 92% 30.20 in 4.0 mi NNE 4.6 mph - N/A   Overcast
3:32 AM 26.6 °F 18.2 °F 24.8 °F 93% 30.18 in 6.0 mi NNE 8.1 mph - N/A   Overcast
3:53 AM 27.0 °F 21.6 °F 24.1 °F 89% 30.19 in 6.0 mi NNE 4.6 mph - N/A   Overcast
4:46 AM 26.6 °F - 24.8 °F 93% 30.17 in 3.0 mi Calm Calm - N/A   Overcast
4:53 AM 26.1 °F 19.4 °F 24.1 °F 92% 30.17 in 3.0 mi ENE 5.8 mph - N/A   Overcast
5:13 AM 26.6 °F 22.6 °F 24.8 °F 93% 30.16 in 3.0 mi NNE 3.5 mph - N/A   Overcast
5:20 AM 26.6 °F 18.2 °F 24.8 °F 93% 30.16 in 4.0 mi NNE 8.1 mph - N/A   Overcast
5:53 AM 26.1 °F 21.9 °F 24.1 °F 92% 30.17 in 4.0 mi NE 3.5 mph - N/A   Overcast
6:26 AM 26.6 °F - 24.8 °F 93% 30.16 in 2.5 mi Calm Calm - N/A   Overcast
6:31 AM 26.6 °F - 24.8 °F 93% 30.16 in 2.5 mi Calm Calm - N/A   Overcast
6:53 AM 26.1 °F - 25.0 °F 96% 30.17 in 2.0 mi Calm Calm - N/A   Overcast
7:17 AM 26.6 °F 20.0 °F 24.8 °F 93% 30.14 in 3.0 mi NE 5.8 mph - N/A   Overcast
7:38 AM 26.6 °F 22.6 °F 24.8 °F 93% 30.16 in 3.0 mi NNE 3.5 mph - N/A   Overcast
7:46 AM 26.6 °F 22.6 °F 24.8 °F 93% 30.16 in 2.5 mi North 3.5 mph - N/A   Overcast
7:53 AM 26.1 °F - 25.0 °F 96% 30.17 in 2.0 mi Calm Calm - N/A   Overcast
8:00 AM 26.6 °F - 24.8 °F 93% 30.16 in 1.5 mi Calm Calm - N/A   Overcast
8:53 AM 27.0 °F - 25.0 °F 92% 30.17 in 1.8 mi Calm Calm - N/A   Overcast
10:05 AM 28.4 °F 24.6 °F 26.6 °F 93% 30.17 in 2.0 mi NE 3.5 mph - N/A   Overcast
10:24 AM 28.4 °F - 26.6 °F 93% 30.17 in 4.0 mi Calm Calm - N/A   Overcast
10:53 AM 28.9 °F - 26.1 °F 89% 30.17 in 2.5 mi Calm Calm - N/A   Overcast
11:00 AM 28.4 °F - 26.6 °F 93% 30.17 in 3.0 mi Calm Calm - N/A   Overcast
11:08 AM 28.4 °F - 26.6 °F 93% 30.16 in 2.5 mi Calm Calm - N/A   Overcast
11:39 AM 28.4 °F - 26.6 °F 93% 30.13 in 4.0 mi Calm Calm - N/A   Overcast
11:53 AM 28.0 °F - 26.1 °F 92% 30.12 in 4.0 mi Calm Calm - N/A   Overcast
1:53 PM 28.9 °F 25.2 °F 27.0 °F 92% 30.04 in 4.0 mi South 3.5 mph - 0.01 in   Overcast
2:53 PM 28.9 °F 23.9 °F 27.0 °F 92% 30.03 in 2.5 mi South 4.6 mph - N/A   Overcast
3:18 PM 30.2 °F 25.4 °F 28.4 °F 93% 30.02 in 3.0 mi SW 4.6 mph - N/A   Overcast
3:53 PM 30.0 °F 24.1 °F 28.0 °F 92% 30.03 in 2.5 mi Variable 5.8 mph - N/A   Overcast
4:53 PM 30.0 °F 26.5 °F 28.0 °F 92% 30.02 in 1.8 mi South 3.5 mph - N/A   Overcast
5:15 PM 30.2 °F 25.4 °F 28.4 °F 93% 30.02 in 2.0 mi SSW 4.6 mph - N/A   Overcast
5:30 PM 30.2 °F 24.3 °F 28.4 °F 93% 30.01 in 1.8 mi SSW 5.8 mph - N/A   Overcast
5:51 PM 30.2 °F 25.4 °F 28.4 °F 93% 30.02 in 2.0 mi SSW 4.6 mph - N/A   Overcast
5:53 PM 30.0 °F 26.5 °F 28.9 °F 96% 30.02 in 2.0 mi South 3.5 mph - N/A   Overcast
6:21 PM 30.2 °F 25.4 °F 28.4 °F 93% 30.01 in 3.0 mi South 4.6 mph - N/A   Overcast
6:53 PM 30.0 °F 25.2 °F 28.9 °F 96% 30.02 in 4.0 mi SSW 4.6 mph - N/A   Overcast
7:53 PM 30.0 °F - 28.9 °F 96% 30.03 in 5.0 mi Calm Calm - N/A   Overcast
8:04 PM 30.2 °F 26.7 °F 28.4 °F 93% 30.02 in 6.0 mi South 3.5 mph - N/A   Overcast
8:27 PM 28.4 °F - 28.4 °F 100% 30.01 in 6.0 mi Calm Calm - N/A   Scattered Clouds
8:53 PM 28.9 °F 25.2 °F 27.0 °F 92% 30.01 in 5.0 mi South 3.5 mph - N/A   Mostly Cloudy
9:53 PM 28.9 °F 22.8 °F 26.1 °F 89% 30.01 in 8.0 mi West 5.8 mph - N/A   Mostly Cloudy
10:53 PM 30.0 °F 23.2 °F 23.0 °F 75% 30.02 in 10.0 mi West 6.9 mph - N/A   Scattered Clouds
11:53 PM 28.9 °F 20.4 °F 19.0 °F 67% 30.02 in 10.0 mi West 9.2 mph - N/A   Mostly Cloudy